www.pogodaiklimat.ru

Погода и климат >> Архив погоды >> Беларусь >> Слуцк


ПОГОДА в Слуцке

  • Прогноз погоды в Слуцке
  • Монитор погоды в Слуцке
  • Климат города

АРХИВ ПОГОДЫ в Слуцке

Время (UTC), дата Ветер
(напр.,м/с)
 
Видим.   Явления Облачность Т
(С)
Тd
(С)
f
(%)
Тe
(С)
Тes
(С)
Комфортность P
(гПа)
Po
(гПа)
Тmin
(С)
Tmax
(С)
R
(мм)
R24
(мм)
S
(см)
18 12.09 Ю 3 11 км 9/9 600 м
[Sc]
+20.6 +15.4 72 +24 +24 комфорт 1002.7 984.1 +26.5
21 12.09 ЮЗ 1 10 км в посл. час ливневой дождь 9/6 600 м
[Cb cap Ac und]
+18.8 +16.6 87 +21 +21 комфорт 1002.8 984.0
00 13.09 З 2 10 км 9/0
[Ac und]
+17.7 +16.7 94 +18 +18 1002.5 983.7
03 13.09 З 4 10 км 9/0
[Ac und]
+15.3 +13.9 91 +14 +14 1003.2 984.2
06 13.09 З 5 14 км 9/9 1020 м
[Sc]
+14.6 +12.6 88 +13 +13 1004.7 985.7 +14.5 0.0
09 13.09 З 6 15 км {ливн. осадки} 9/6 600 м
[Sc Ac und]
+17.2 +12.3 73 +16 +17 1005.9 987.0
12 13.09 З 4 15 км {ливн. осадки} 9/9 960 м
[Sc]
+17.0 +11.7 71 +17 +17 1006.8 987.8
15 13.09 ЮЗ 4 18 км 4/4 600 м
[Sc diur, vesp]
+18.0 +11.2 64 +18 +18 1006.2 987.4
18 13.09 Ю 4 15 км 1/0
[Ac lent]
+13.6 +10.4 81 +12 +12 1006.4 987.3 +19.3 0.1
21 13.09 Ю 5 12 км 8/0
[Ac trans]
+13.8 +10.5 80 +12 +12 1005.3 986.3
00 14.09 Ю 5
{10}
15 км 3/0
[Ac trans]
+13.8 +9.7 76 +12 +12 1003.4 984.4
03 14.09 Ю 5
{12}
15 км 6/0
[Ac trans]
+12.7 +9.3 80 +11 +11 1003.7 984.5
06 14.09 ЮЗ 6
{10}
22 км 9/3 600 м
[Sc Ci sp]
+13.8 +9.5 75 +12 +12 1003.3 984.3 +11.5
09 14.09 ЮЗ 7-12
{13}
20 км 9/4 600 м
[Sc Ac trans Cc]
+18.0 +11.7 67 +17 +18 1003.6 984.8
12 14.09 Ю 5
{14}
20 км 10/6 600 м
[Sc As trans]
+19.0 +13.0 68 +20 +20 1003.7 984.9
15 14.09 Ю 2 12 км {ливн. осадки} 9/4 600 м
[Sc Ac trans]
+18.8 +14.7 77 +20 +21 1002.5 983.7
18 14.09 Ю 5 12 км {ливн. осадки} 9/5 600 м
[Sc Ac trans]
+19.6 +12.1 62 +21 +21 комфорт 1001.9 983.3 +19.7 0.0
21 14.09 Ю 4 12 км 6/0
[Ac trans]
+17.4 +12.3 72 +17 +17 1002.5 983.6
00 15.09 З 1 10 км 9/9 1200 м
[Sc]
+13.8 +12.9 94 +14 +14 1002.8 983.8
03 15.09 З 3 10 км слабый ливневой дождь 10/10 500 м
[Cb cap]
+12.6 +11.7 94 +11 +11 1003.7 984.5
06 15.09 ЮЗ 5
{10}
8000 м слабый ливневой дождь 10/10 480 м
[Cb cap]
+11.0 +9.7 92 +8 +8 1005.6 986.3 +10.9 2
09 15.09 З 9-13
{15}
24 км 8/5 600 м
[Cu Sc Ac cast Cc]
+14.3 +6.7 60 +12 +12 1007.5 988.4
12 15.09 З 9-14
{17}
22 км 9/8 600 м
[Cu Sc Ac trans]
+15.4 +6.5 55 +13 +14 1010.0 990.9
15 15.09 З 8-12
{16}
20 км 6/4 600 м
[Sc Ac trans]
+15.2 +7.1 58 +13 +13 1011.7 992.5
18 15.09 ЮЗ 4
{12}
18 км 9/3 1000 м
[Sc Ac und]
+12.5 +8.1 75 +11 +11 1014.2 994.8 +16.3
21 15.09 Ю 3 15 км 3/0
[Ac trans]
+8.9 +7.3 90 +6 +6 1015.4 995.8
00 16.09 Ю 2 15 км 1/0
[Ci fib]
+7.7 +6.8 94 +6 +6 1016.6 996.8
03 16.09 ЮЗ 2 14 км 9/3 1000 м
[Sc Ac lent]
+7.9 +7.3 96 +6 +6 1017.6 997.8
06 16.09 С 1 14 км 6/3 600 м
[Sc Ac lent]
+9.8 +8.0 89 +9 +10 1018.5 998.8 +6.8
09 16.09 ЮЗ 4 15 км 8/0
[Ac trans]
+15.6 +9.4 67 +15 +17 1020.5 1001.2
12 16.09 Ю 1 18 км 10/0
[As op]
+17.0 +8.6 58 +18 +19 1019.0 999.8
15 16.09 Ю 1 10 км слабый дождь 10/0
[As op]
+14.2 +11.2 82 +15 +15 1019.1 999.8
18 16.09 В 1 12 км {дождь} 10/0
[As op]
+12.3 +10.5 89 +12 +12 1019.3 999.9 +17.6 1
21 16.09 В 2 5000 м дождь 10/0 400 м
[As op]
+12.3 +10.4 88 +11 +11 1018.1 998.7
00 17.09 В 4 10 км {дождь} 8/0
[Ac trans]
+12.6 +10.3 86 +11 +11 1015.8 996.4
03 17.09 В 2 10 км 9/0
[Ac trans Ci sp]
+12.0 +10.3 89 +11 +11 1014.6 995.2
06 17.09 В 1 10 км 9/0
[Ac trans Ci sp]
+12.5 +10.7 89 +12 +14 1013.9 994.5 +11.4 0.8
09 17.09 штиль 0 10 км 9/3 600 м
[Sc Ac trans]
+17.8 +13.5 76 +18 +21 1013.1 994.1
12 17.09 штиль 0 11 км 9/4 600 м
[Sc Ac und]
+20.2 +15.0 72 +22 +25 комфорт 1011.8 993.0
15 17.09 С 1 5000 м дождь 10/10 210 м
[Frnb Ns]
+16.7 +16.5 99 +18 +18 1011.6 992.5
18 17.09 СВ 2 5000 м слабый дождь 10/10 240 м
[Frnb Ns]
+16.2 +15.7 97 +16 +16 1008.6 989.6 +20.7 3
21 17.09 В 2 4500 м в посл. час гроза {ливн. осадки} 9/6 300 м
[Cb cap Ac und]
+16.8 +16.4 97 +17 +17 1005.2 986.3
00 18.09 Ю 1 3500 м дымка {гроза, ливн. осадки} 9/9 570 м
[Sc]
+16.6 +16.3 98 +17 +17 1002.5 983.6
03 18.09 Ю 4 10 км {ливн. осадки} 4/0
[Ci sp]
+14.9 +13.4 91 +14 +14 1002.2 983.3
06 18.09 Ю 9-14
{14}
20 км {ливн. осадки} 8/8 600 м
[Sc]
+13.9 +10.6 80 +11 +11 1002.3 983.3 +13.8 6
09 18.09 ЮЗ 10-15
{18}
18 км 9/9 800 м
[Sc]
+13.6 +9.3 75 +11 +11 1004.0 984.8
12 18.09 ЮЗ 9-15
{16}
16 км 10/10 700 м
[Cb cap]
+13.8 +9.7 76 +11 +11 1004.8 985.8
15 18.09 ЮЗ 10-15
{19}
10 км слабый ливневой дождь 10/10 570 м
[Cb cap]
+12.8 +10.0 83 +9 +9 1006.0 986.8
18 18.09 ЮЗ 11-19
{20}
15 км {ливн. осадки} 9/9 1000 м
[Sc]
+13.1 +7.4 68 +10 +10 1007.5 988.2 +14.7 0.0
21 18.09 ЮЗ 8-12
{19}
15 км 8/8 600 м
[Sc]
+10.9 +6.4 74 +7 +7 1010.9 991.4
00 19.09 ЮЗ 6
{12}
12 км ясно +9.3 +7.6 89 +6 +6 1013.0 993.4
03 19.09 ЮЗ 4 11 км ясно +8.3 +7.3 93 +5 +5 1014.7 995.1
06 19.09 ЮЗ 5 12 км 8/8 600 м
[Sc]
+9.4 +8.1 92 +6 +6 1016.5 997.0 +7.0
09 19.09 ЮЗ 5 15 км 5/5 600 м
[Cu Sc]
+14.8 +9.2 69 +13 +15 1017.6 998.3
12 19.09 З 4 17 км 6/3 600 м
[Cu hum Ci]
+16.0 +6.1 52 +15 +18 1018.0 998.7
15 19.09 ЮЗ 2 16 км 8/3 600 м
[Sc Ci]
+16.1 +7.3 56 +16 +17 1018.0 998.8

 

Местоположение метеостанции Слуцк (Минская область, Беларусь): широта 53.03 долгота 27.55 высота над уровнем моря 162 м.

В архиве по умолчанию представлена погода в Слуцке за последнюю неделю. Архивные данные за месяц целиком и за предыдущие месяцы, начиная с января 2011 года, Вы можете получить, выбрав интересующий диапазон дат из раскрывающегося списка и нажав кнопку "Ввод!".

Внимание! Время в таблицах - всемирное. Для получения местного времени необходимо прибавить поправку, которая в Слуцке равна 3 ч.

Смотрите также архив погоды в соседних городах и на ближайших метеорологических станциях:

Погода в Барановичах (Брестская область, Беларусь) (30 км)
Погода в Марьиной Горке (Минская область, Беларусь) (61 км)
Погода в Столбцах (Минская область, Беларусь) (74 км)
Погода в Ганцевичах (Брестская область, Беларусь) (81 км)
Погода в Житковичах (Гомельская область, Беларусь) (93 км)
Погода в Октябре (Гомельская область, Беларусь) (99 км)
Погода в Полесской (Брестская область, Беларусь) (99 км)
Погода в Минске (город Минск, Беларусь) (100 км)
Погода в Бобруйске (Могилевская область, Беларусь) (107 км)
Погода в Кличеве (Могилевская область, Беларусь) (129 км)

Пояснения к столбцам:

Ветер - указаны скорость ветра в м/с - средняя за 10 мин, порывы в срок и между сроками (в фигурных скобках) и направление, откуда дует ветер: С - северный, СВ - северо-восточный, В - восточный, ЮВ - юго-восточный, Ю - южный, ЮЗ - юго-западный, З - западный, СЗ - северо-западный.
Видимость - горизонтальная дальность видимости в метрах или километрах. При видимости от 1 до 10 км при отсутствии осадков обычно наблюдается дымка, при ухудшении видимости до 1 км и менее - туман. В сухую погоду видимость может ухудшаться дымом, пылью или мглою.
Явления - указаны атмосферные явления, наблюдавшиеся в срок или в последний час перед сроком; фигурными скобками обозначены явления, наблюдавшиеся между сроками (за 1-3 часа до срока); квадратными скобками обозначены град или гололедные отложения с указанием их диаметра в мм.
Облачность - указаны через наклонную черту общая и нижняя облачность в баллах и высота нижней границы облаков в метрах; квадратными скобками обозначены формы облаков: Ci - перистые, Cs - перисто-слоистые, Cc - перисто-кучевые, Ac - высококучевые, As - высокослоистые, Sc - слоисто-кучевые, Ns - слоисто-дождевые, Cu - кучевые, Cb - кучево-дождевые. Подробнее классификацию облаков см. в Атласе облаков (PDF).
T - Температура воздуха - температура, измеренная на высоте 2 м над землей.
Td - Температура точки росы - температура, при понижении до которой содержащийся в воздухе водяной пар достигнет насыщения.
f - Относительная влажность воздуха - влажноcть воздуха, измеренная на высоте 2 м над землей.
Te - Эффективная температура - температура, которую ощущает одетый по сезону человек в тени. Характеристика душности погоды. При расчете учитывается влияние влажности воздуха и скорости ветра на теплоощущения человека.
Tes - Эффективная температура на солнце - температура, которую ощущает человек, с поправкой на солнечный нагрев. Характеристика знойности погоды. Зависит от высоты солнца над горизонтом, облачности и скорости ветра. Ночью, в пасмурную погоду, а также при ветре 12 м/с и более поправка равна нулю.
P - Атмосферное давление - приведенное к уровню моря атмосферное давление.
Po - Атмосферное давление - измеренное на уровне метеостанции атмосферное давление.
Tmin - Минимальная температура - минимум температуры воздуха на высоте 2 м над землей.
Tmax - Максимальная температура - максимум температуры воздуха на высоте 2 м над землей.
R - Количество осадков - Количество выпавших осадков за период времени, мм. При наведении курсора мыши на число - период времени, за который выпало указанное количество осадков.
R24 - Количество осадков - Количество выпавших осадков за 24 часа, мм.
S - Снежный покров - Высота снежного покрова, см. При наведении курсора мыши на число - состояние снежного покрова и степень покрытия местности в баллах.